sat.trackr.live / text

‹ back to catalog

STARLINK-30530

NORAD 58005 · 2023-153Q

PAYLOAD ACTIVE UNKNOWN

§ Identity

Operator
Country
US
Launch date
2023-10-05
Launch site
AFETR
Launch vehicle
Mass (kg)
RCS (m²)

Purposes: comms

External: N2YO · Heavens-Above · Gunter

§ Orbital elements

Epoch: 2026-09-20T09:08:38.444928Z

Period
94.27 min
Inclination
43.0053°
Eccentricity
0.0001502
Mean motion
15.27573473 rev/d
Perigee alt
482.0 km
Apogee alt
484.1 km
Semi-major
6,861.2 km
B*
-7.4353e-6
RAAN
47.3850°
Arg perigee
269.7780°
Mean anomaly
90.2900°
Rev number
16,467

§ Raw data

STARLINK-305301 58005U 23153Q   26263.38100052 -.00000467  00000+0 -74353-5 0  99952 58005  43.0053  47.3850 0001502 269.7780  90.2900 15.27573473164677

JSON: /api/v1/satellites/58005 · /tle

For live sub-satellite position, see the globe view (requires WebGL).

§ Visibility from observer

Set your observer location to see the next 7 days of passes ≥ 10°. The values pass through the URL so the page stays shareable.

No JS? Fill the form by hand. The geolocation button needs JavaScript.